Oroville, CA

4:55 AM PDT on August 24, 2017 (GMT -0700)
Oroville Municipal

Weather History for KOVE - March, 2014

Change the Weather History Date:

Monday, March 31, 2014

  Actual Average Record
Temperature  
Mean Temperature 51 °F -  
Max Temperature 57 °F 70 °F 84 °F (1966)
Min Temperature 45 °F 45 °F 34 °F (1990)
Degree Days  
Heating Degree Days 14    
Growing Degree Days 1 (Base 50)    
Moisture  
Dew Point 42 °F    
Average Humidity 80    
Maximum Humidity 90    
Minimum Humidity 55    
Precipitation  
Precipitation 0.35 in - - ()
Sea Level Pressure  
Sea Level Pressure 29.90 in    
Wind  
Wind Speed 9 mph (SSE)    
Max Wind Speed 14 mph    
Max Gust Speed 22 mph    
Visibility 8 miles    
Events Rain , Thunderstorm    
Averages and records for this station are not official NWS values.
T = Trace of Precipitation, MM = Missing Value Source: NWS Daily Summary

Daily Weather History Graph

Daily Weather History Graph

Search for Another Location

Airport or City:

Trip Planner

Search our weather history database for the weather conditions in past years. The results will help you decide how hot, cold, wet, or windy it might be!

Date:

Astronomy

Mar. 31, 2014 Rise Set
Actual Time 6:52 AM PDT 7:29 PM PDT
Civil Twilight 6:25 AM PDT 7:56 PM PDT
Nautical Twilight 5:53 AM PDT 8:28 PM PDT
Astronomical Twilight 5:20 AM PDT 9:01 PM PDT
Moon 7:19 AM PDT (3/31) 8:53 PM PDT (3/31)
Length of Visible Light 13h 31m
Length of Day
12h 37m
New Moon, 1% of the Moon is Illuminated
Mar 31
New Moon
Apr 7
First Quarter
Apr 15
Full
Apr 22
Last Quarter
Apr 28
New

Hourly Weather History & Observations

Time (PDT) Temp. Windchill Dew Point Humidity Pressure Visibility Wind Dir Wind Speed Gust Speed Precip Events Conditions
12:53 AM 48.9 °F - 41.0 °F 74% 30.06 in 10.0 mi SE 10.4 mph - N/A   Partly Cloudy
1:53 AM 46.0 °F 43.1 °F 41.0 °F 83% 30.06 in 10.0 mi ESE 5.8 mph - N/A   Clear
2:53 AM 46.0 °F 43.1 °F 41.0 °F 83% 30.05 in 10.0 mi ESE 5.8 mph - N/A   Clear
3:53 AM 46.9 °F - 39.9 °F 77% 30.04 in 10.0 mi SE 9.2 mph - N/A   Clear
4:53 AM 46.9 °F - 39.9 °F 77% 30.02 in 10.0 mi SE 8.1 mph - N/A   Clear
6:53 AM 45.0 °F 42.6 °F 39.9 °F 82% 30.00 in 10.0 mi SE 4.6 mph - N/A   Mostly Cloudy
7:53 AM 46.9 °F - 41.0 °F 80% 29.99 in 10.0 mi ESE 5.8 mph - N/A   Mostly Cloudy
8:53 AM 50.0 °F - 42.1 °F 74% 29.97 in 10.0 mi ESE 6.9 mph - N/A   Mostly Cloudy
9:53 AM 51.1 °F - 43.0 °F 74% 29.96 in 10.0 mi SE 5.8 mph - N/A   Overcast
10:53 AM 54.0 °F - 42.1 °F 64% 29.93 in 10.0 mi SE 8.1 mph - N/A   Mostly Cloudy
11:53 AM 54.0 °F - 41.0 °F 62% 29.92 in 10.0 mi SE 9.2 mph - N/A   Overcast
12:53 PM 55.9 °F - 39.9 °F 55% 29.89 in 10.0 mi SE 11.5 mph - N/A   Scattered Clouds
1:53 PM 57.0 °F - 42.1 °F 57% 29.85 in 10.0 mi SE 12.7 mph - N/A   Clear
2:53 PM 55.9 °F - 44.1 °F 64% 29.83 in 10.0 mi SE 12.7 mph - 0.00 in Rain Light Rain
3:53 PM 48.0 °F - 44.1 °F 86% 29.83 in 3.0 mi SW 10.4 mph 21.9 mph 0.05 in Rain Rain
4:04 PM 48.0 °F - 44.1 °F 86% 29.83 in 7.0 mi SW 10.4 mph 20.7 mph 0.00 in Rain , Thunderstorm Light Rain
4:21 PM 48.0 °F - 44.1 °F 86% 29.82 in 10.0 mi SW 6.9 mph - 0.01 in Rain Light Rain
4:53 PM 48.0 °F - 44.1 °F 86% 29.84 in 6.0 mi South 12.7 mph 19.6 mph 0.02 in Rain Light Rain
5:14 PM 46.9 °F - 44.1 °F 90% 29.83 in 3.0 mi SSW 9.2 mph - 0.07 in Rain Rain
5:23 PM 46.9 °F - 43.0 °F 86% 29.83 in 2.5 mi SSW 9.2 mph 19.6 mph 0.10 in Rain Rain
5:30 PM 46.9 °F - 44.1 °F 90% 29.83 in 3.0 mi SSW 9.2 mph - 0.12 in Rain Rain
5:39 PM 46.0 °F 42.5 °F 43.0 °F 89% 29.81 in 2.0 mi SSW 6.9 mph - 0.16 in Rain Rain
5:53 PM 46.9 °F - 44.1 °F 90% 29.82 in 4.0 mi South 3.5 mph - 0.19 in Rain Rain
6:53 PM 46.0 °F 41.4 °F 43.0 °F 89% 29.83 in 7.0 mi ESE 9.2 mph - 0.03 in Rain Light Rain
7:53 PM 46.0 °F 41.0 °F 43.0 °F 89% 29.84 in 10.0 mi SE 10.4 mph - 0.06 in   Overcast
8:53 PM 46.0 °F 40.6 °F 42.1 °F 86% 29.86 in 10.0 mi SE 11.5 mph - N/A   Clear
9:26 PM 46.0 °F 41.4 °F 43.0 °F 89% 29.87 in 10.0 mi ESE 9.2 mph - N/A   Mostly Cloudy
9:49 PM 46.4 °F 41.9 °F 42.8 °F 87% 29.88 in 10.0 mi SE 9.2 mph - N/A   Overcast
9:53 PM 46.0 °F 41.4 °F 43.0 °F 89% 29.89 in 10.0 mi SE 9.2 mph - N/A   Overcast
10:53 PM 46.0 °F 41.9 °F 42.1 °F 86% 29.90 in 10.0 mi ESE 8.1 mph - N/A   Overcast
11:53 PM 46.0 °F 39.9 °F 41.0 °F 83% 29.91 in 10.0 mi SE 13.8 mph - N/A   Mostly Cloudy